Wind_Speed
47 49 50 49 47 45 45 45 44 44 47 50 52 51 53 59 64 59 49 43 41 38 36 38 38 40 40 39 38 36 31 29 29 30 28 29 29 31 31 32 32 30 30 30
53 53 47 45 47 47 47 45 45 48 49 53 53 47 57 60 55 51 48 41 37 37 35 33 36 38 38 37 36 36 34 31 30 31 31 28 29 31 33 33 33 32 31 30
52 50 50 50 48 47 50 50 47 49 50 52 58 49 58 53 48 38 37 42 31 25 24 29 32 35 38 35 36 37 33 33 31 31 30 28 30 30 33 34 32 31 32 30
49 49 49 49 49 52 54 53 51 50 50 49 57 60 52 50 38 32 36 31 26 18 18 24 27 31 34 38 39 34 33 34 33 32 29 29 29 28 31 32 31 30 30 29
53 53 51 50 52 56 54 50 49 46 49 50 51 57 40 47 39 32 32 29 24 21 23 24 27 29 32 34 38 36 35 35 35 34 31 30 29 26 28 29 30 29 28 28
51 49 51 53 55 54 51 49 46 47 48 49 46 49 39 42 39 30 26 27 27 25 27 28 27 26 27 30 31 44 37 37 34 34 33 32 29 27 27 27 28 28 27 28
50 51 52 54 55 50 45 44 47 47 48 50 46 48 42 43 38 32 23 21 25 28 24 26 30 26 26 30 22 37 43 38 37 36 35 34 29 27 26 25 26 26 26 27
51 54 54 55 53 50 46 45 47 50 47 46 48 49 44 40 40 31 23 26 31 29 26 24 29 29 31 33 25 20 39 39 38 37 36 33 30 28 25 24 25 25 25 27
53 55 54 53 52 49 46 44 47 46 44 48 42 46 40 38 39 36 25 27 34 36 37 27 30 31 30 33 26 23 21 46 38 34 34 34 31 26 24 24 23 24 24 26
51 52 54 54 48 46 49 45 42 44 46 46 46 45 46 44 43 38 36 33 32 32 34 32 33 34 28 31 31 29 28 26 36 28 33 33 27 25 24 23 23 22 22 24
50 52 53 53 45 41 42 45 44 46 48 49 51 54 58 55 58 57 45 41 40 32 35 34 36 31 30 34 31 34 30 22 39 33 32 30 27 26 23 22 20 21 21 23
54 54 51 54 49 40 37 38 41 46 49 52 58 61 63 65 63 65 57 54 49 47 44 37 31 30 30 27 27 31 28 24 39 32 30 28 28 27 22 21 20 20 20 21
55 51 48 47 47 36 35 40 47 52 52 55 60 71 72 59 55 57 59 55 50 51 52 47 42 34 32 24 26 24 27 27 32 32 27 26 27 26 22 21 19 19 18 20
51 40 31 26 28 34 40 46 51 55 56 58 64 65 54 47 46 46 49 51 53 58 53 55 52 44 36 30 31 29 24 22 29 32 25 25 26 24 23 20 18 18 17 17
26 23 24 27 33 38 40 44 48 53 51 58 51 54 45 42 39 40 39 38 45 50 53 59 55 36 40 39 37 35 24 23 28 36 26 27 26 24 22 19 18 16 16 14
20 23 21 31 33 34 37 48 50 44 43 44 45 45 37 36 31 36 35 42 47 42 41 53 46 44 42 39 41 39 32 25 29 32 29 28 25 23 21 18 18 16 14 11
15 22 26 30 29 33 38 39 40 35 30 35 35 28 29 30 24 28 34 41 50 49 35 42 46 38 38 35 31 36 32 29 32 31 28 28 25 23 20 20 17 15 12 12
23 27 27 25 27 31 28 34 30 26 20 11 16 18 17 19 18 25 33 41 49 53 39 31 36 39 39 35 40 33 27 32 35 31 29 27 26 22 21 19 18 13 12 13
22 25 25 25 29 29 26 25 23 16 6 14 18 14 16 15 10 15 24 35 44 53 48 41 37 41 35 31 30 23 28 36 40 34 29 27 24 23 22 21 17 13 13 15
17 19 22 24 27 26 22 19 15 11 4 9 9 12 13 17 5 11 22 34 46 50 54 46 36 43 36 35 37 29 30 38 37 34 29 27 25 25 23 21 17 13 12 16
16 16 15 19 23 24 17 17 16 12 9 9 10 9 13 12 2 5 5 18 33 39 43 36 32 35 26 40 36 33 30 36 36 33 28 26 27 26 24 21 17 12 13 16
12 16 15 17 20 24 17 17 16 12 14 9 6 8 6 4 4 9 5 10 25 38 42 27 30 34 27 41 37 31 30 33 35 31 27 27 28 26 24 22 19 15 15 18
7 13 20 18 18 24 16 17 16 14 17 18 3 9 9 3 5 12 5 12 26 43 32 27 26 34 40 36 37 37 29 31 35 29 30 28 28 27 25 24 21 18 16 16
8 14 18 22 17 21 18 17 18 12 15 17 15 7 9 7 7 8 9 18 28 39 27 19 22 30 37 36 34 29 24 33 38 37 30 28 28 27 26 26 24 21 18 16
13 16 18 18 23 18 12 16 21 19 15 14 16 11 11 4 8 6 12 17 23 23 28 26 28 36 36 28 26 27 26 30 35 36 32 29 30 29 28 27 23 19 15 14
14 19 18 17 24 16 11 19 18 15 15 15 18 14 11 5 4 8 10 18 25 25 24 26 34 37 40 37 32 27 24 28 36 36 30 29 30 29 29 27 22 18 16 16
Wind_Direction
292 293 298 294 293 293 291 289 288 287 283 289 289 287 279 275 273 278 280 277 270 263 255 251 254 256 256 256 257 262 255 247 242 247 249 244 251 254 257 260 261 261 263 266
291 294 294 290 288 283 280 278 285 287 283 287 281 282 272 275 279 280 281 277 261 256 255 249 247 248 253 255 253 253 252 243 237 240 244 241 248 251 251 253 257 259 262 266
295 293 293 289 282 276 273 273 277 279 278 281 276 270 270 279 283 282 270 263 258 251 247 246 245 246 246 249 248 247 248 240 233 235 240 240 242 249 252 252 255 263 267 270
295 292 289 284 278 268 267 271 273 274 277 282 279 275 272 279 276 265 265 264 258 249 252 248 251 250 253 246 241 241 241 240 233 230 234 236 241 245 253 257 260 264 268 276
292 288 287 283 274 268 268 273 276 276 280 281 282 286 279 273 271 270 262 258 251 244 228 238 244 244 249 254 256 235 228 233 236 229 227 231 239 243 250 256 261 266 270 275
282 277 276 275 273 273 275 279 282 281 283 283 287 283 280 273 275 275 255 248 252 223 213 218 221 239 250 255 259 240 224 222 228 229 229 230 232 238 245 252 261 265 271 276
275 275 277 275 276 277 279 280 281 278 279 284 278 268 276 273 272 266 251 238 225 220 228 222 226 252 256 268 268 246 218 223 220 226 226 231 229 234 242 250 258 265 272 276
272 274 277 280 281 280 280 276 276 277 280 281 276 274 276 269 270 259 256 217 219 236 244 251 245 233 251 260 264 263 217 217 219 220 221 225 227 230 238 247 257 265 270 273
280 279 278 278 281 282 283 276 275 280 282 281 279 278 280 277 265 261 257 226 224 231 246 245 245 235 244 253 258 266 244 218 213 215 220 220 227 228 233 243 252 260 266 270
280 281 284 277 276 280 280 280 278 281 280 281 281 273 274 281 274 259 260 259 251 249 248 253 247 235 243 259 265 253 257 234 214 214 223 230 230 228 230 240 249 259 265 274
275 277 284 280 271 270 271 272 273 278 282 283 285 284 282 276 280 274 255 256 260 254 255 254 250 239 243 257 258 255 252 237 219 208 217 223 224 225 228 238 249 255 264 272
277 278 280 279 269 262 264 271 277 280 285 288 286 284 283 276 273 266 260 258 257 259 253 256 244 242 245 244 255 256 246 246 216 206 216 216 218 223 226 237 243 253 262 271
278 274 276 267 262 268 276 280 285 283 285 291 287 294 283 274 264 259 251 248 249 251 253 249 242 227 229 241 245 253 242 235 235 208 218 214 217 220 226 229 237 249 260 265
277 269 263 277 279 285 291 290 284 282 284 289 291 289 277 269 265 253 247 244 241 243 238 240 239 229 232 247 238 239 248 247 237 207 218 215 218 216 218 222 232 244 252 262
245 266 295 291 288 293 289 282 279 282 288 287 288 278 277 275 266 254 242 235 235 236 231 229 235 231 230 233 230 232 245 251 237 217 212 216 212 210 213 218 230 237 245 256
271 282 285 274 290 298 306 306 294 288 287 288 285 286 288 278 270 251 235 219 228 233 226 226 217 211 218 217 223 231 236 243 224 200 205 208 204 208 211 217 226 226 242 239
293 279 277 288 306 308 304 299 297 296 306 299 301 302 289 282 274 245 234 217 219 219 208 188 198 207 214 222 215 227 235 231 218 198 202 205 203 206 208 216 217 221 237 222
268 272 285 298 305 305 300 294 296 306 309 330 352 344 324 288 271 237 226 218 215 218 225 199 198 205 216 224 211 218 219 210 208 190 201 203 203 201 208 210 209 212 229 203
268 277 293 302 307 314 298 277 289 303 257 350 353 333 337 311 270 235 224 211 216 216 217 217 220 208 207 210 205 212 212 209 193 188 199 202 198 200 206 202 201 207 219 196
269 292 311 309 305 309 288 267 269 288 260 11 341 339 3 358 265 220 216 204 204 213 215 207 202 208 206 215 198 214 209 200 191 193 196 198 195 201 200 196 190 205 197 190
274 310 317 297 297 300 276 247 250 273 225 342 294 309 338 7 88 153 193 212 212 208 195 178 188 189 191 184 172 199 203 200 194 191 195 192 196 196 193 191 184 191 193 193
279 345 336 305 307 310 260 230 239 255 237 294 283 298 324 33 84 149 151 204 209 201 177 153 161 179 203 192 193 207 206 203 196 185 192 191 194 191 190 185 180 177 182 170
305 358 4 329 325 306 252 224 231 252 254 268 354 267 294 0 169 174 226 206 194 192 178 151 171 183 164 178 186 200 211 203 193 183 188 192 190 189 187 182 178 178 190 186
295 338 346 355 315 319 272 236 233 257 265 276 259 291 274 293 192 203 195 180 194 191 174 141 164 180 185 181 190 195 208 204 196 188 179 191 188 188 187 183 181 183 192 199
278 312 341 346 347 351 286 245 244 253 270 271 251 261 254 308 269 219 191 184 190 187 189 155 154 159 165 167 172 194 213 204 194 181 179 189 189 187 187 184 184 186 194 203
274 304 329 340 352 343 306 241 247 254 256 264 246 245 242 274 267 231 207 179 174 172 188 161 163 164 160 182 194 201 206 203 191 182 178 187 189 188 186 183 182 187 189 189
Height
5793 5790 5789 5783 5778 5775 5773 5771 5771 5770 5765 5764 5763 5761 5756 5752 5747 5748 5751 5752 5750 5750 5750 5750 5750 5750 5753 5755 5758 5762 5765 5768 5769 5771 5772 5775 5779 5782 5782 5782 5784 5784 5785 5785
5781 5778 5774 5770 5765 5761 5757 5756 5756 5756 5751 5747 5745 5750 5743 5740 5739 5737 5737 5739 5737 5736 5738 5740 5741 5742 5744 5746 5749 5752 5757 5760 5762 5762 5763 5767 5771 5774 5776 5778 5779 5780 5781 5781
5768 5765 5760 5756 5751 5748 5744 5740 5740 5738 5736 5732 5726 5732 5732 5732 5728 5725 5723 5721 5725 5728 5730 5731 5732 5731 5734 5737 5741 5744 5749 5751 5753 5754 5757 5760 5762 5766 5769 5771 5772 5773 5774 5774
5755 5751 5746 5740 5737 5734 5731 5724 5723 5722 5720 5720 5711 5709 5723 5722 5718 5712 5713 5716 5718 5719 5721 5723 5724 5724 5725 5728 5729 5733 5739 5743 5745 5746 5749 5751 5754 5757 5760 5763 5765 5766 5766 5766
5741 5736 5731 5725 5721 5717 5719 5713 5708 5710 5707 5706 5704 5696 5712 5706 5707 5707 5705 5707 5709 5709 5709 5713 5715 5716 5717 5718 5720 5722 5727 5733 5738 5739 5741 5743 5746 5750 5753 5755 5759 5759 5760 5761
5724 5720 5716 5712 5706 5702 5702 5701 5697 5694 5693 5692 5695 5687 5697 5695 5695 5698 5699 5699 5701 5702 5700 5701 5704 5708 5709 5709 5709 5712 5718 5723 5728 5732 5734 5736 5739 5743 5746 5749 5752 5753 5754 5755
5708 5704 5702 5699 5694 5691 5688 5688 5684 5681 5679 5678 5684 5677 5686 5684 5685 5687 5690 5690 5692 5694 5694 5694 5697 5700 5701 5701 5702 5703 5707 5713 5718 5723 5726 5729 5731 5735 5739 5742 5745 5747 5748 5748
5693 5691 5690 5686 5683 5680 5677 5676 5672 5665 5668 5670 5670 5668 5677 5676 5674 5678 5679 5680 5684 5688 5690 5690 5692 5694 5695 5695 5697 5699 5701 5704 5707 5712 5717 5721 5725 5728 5732 5735 5739 5741 5741 5743
5679 5678 5676 5673 5670 5669 5666 5661 5661 5656 5656 5653 5662 5663 5664 5666 5666 5666 5670 5671 5672 5677 5681 5682 5685 5687 5688 5689 5690 5690 5695 5696 5698 5702 5708 5712 5718 5721 5725 5728 5732 5735 5736 5737
5665 5662 5662 5660 5659 5658 5654 5652 5649 5646 5643 5640 5647 5648 5649 5652 5656 5656 5657 5660 5662 5665 5669 5672 5676 5680 5681 5682 5684 5685 5685 5687 5690 5694 5701 5706 5712 5716 5718 5722 5726 5728 5730 5730
5652 5651 5650 5647 5644 5644 5644 5640 5639 5637 5632 5629 5629 5634 5636 5639 5641 5643 5645 5645 5648 5653 5659 5662 5666 5669 5672 5674 5676 5676 5676 5679 5683 5688 5693 5698 5705 5709 5712 5716 5720 5723 5725 5726
5641 5637 5636 5634 5631 5631 5629 5629 5626 5621 5620 5616 5613 5615 5613 5611 5617 5619 5623 5629 5634 5639 5646 5653 5657 5661 5662 5665 5667 5668 5670 5672 5676 5679 5686 5692 5696 5702 5705 5711 5714 5717 5719 5720
5627 5624 5622 5620 5621 5619 5619 5616 5613 5607 5601 5605 5597 5598 5588 5593 5592 5595 5601 5609 5617 5623 5630 5637 5647 5651 5654 5656 5659 5661 5664 5667 5671 5674 5680 5684 5690 5696 5700 5705 5709 5712 5714 5715
5613 5614 5613 5610 5608 5609 5609 5602 5595 5587 5583 5580 5577 5574 5574 5573 5570 5576 5582 5591 5598 5605 5614 5622 5634 5641 5646 5648 5652 5656 5658 5662 5666 5670 5675 5680 5686 5690 5695 5700 5704 5707 5709 5710
5603 5603 5601 5598 5596 5594 5595 5590 5582 5571 5568 5557 5561 5551 5556 5554 5556 5557 5564 5574 5582 5590 5598 5609 5618 5630 5637 5639 5644 5649 5653 5656 5661 5665 5671 5676 5681 5685 5691 5694 5699 5703 5705 5706
5591 5592 5591 5588 5585 5582 5579 5576 5569 5562 5556 5550 5543 5541 5543 5539 5543 5547 5551 5559 5565 5575 5585 5594 5607 5617 5625 5630 5635 5641 5646 5651 5655 5660 5666 5671 5676 5682 5686 5690 5695 5699 5701 5702
5582 5581 5580 5578 5573 5568 5567 5563 5558 5553 5547 5540 5536 5535 5531 5529 5531 5534 5541 5546 5553 5563 5573 5583 5595 5607 5614 5616 5622 5634 5639 5643 5649 5656 5661 5668 5672 5677 5681 5687 5692 5695 5697 5699
5574 5573 5571 5568 5564 5562 5556 5550 5548 5547 5543 5539 5534 5530 5525 5522 5523 5526 5531 5539 5545 5555 5563 5576 5589 5597 5605 5613 5619 5626 5631 5636 5643 5650 5658 5663 5668 5672 5678 5684 5688 5692 5694 5696
5566 5564 5561 5559 5555 5553 5549 5544 5544 5543 5541 5536 5533 5530 5524 5519 5518 5520 5526 5535 5542 5550 5559 5570 5582 5590 5596 5600 5614 5618 5624 5631 5638 5646 5654 5660 5663 5669 5676 5681 5686 5689 5691 5693
5559 5557 5555 5551 5547 5544 5543 5541 5539 5539 5538 5534 5531 5529 5525 5521 5518 5519 5523 5530 5539 5545 5556 5568 5577 5586 5592 5601 5607 5614 5620 5628 5634 5642 5650 5655 5660 5667 5674 5679 5683 5686 5688 5691
5554 5552 5549 5544 5539 5539 5534 5534 5535 5535 5537 5532 5530 5528 5526 5523 5520 5522 5525 5530 5538 5547 5557 5567 5574 5582 5586 5593 5599 5610 5618 5625 5631 5638 5646 5651 5658 5665 5671 5677 5681 5684 5687 5690
5550 5549 5543 5540 5535 5531 5527 5528 5531 5531 5531 5530 5529 5528 5526 5526 5526 5526 5529 5531 5537 5545 5555 5562 5570 5577 5585 5590 5600 5608 5616 5622 5628 5635 5643 5650 5657 5663 5669 5674 5679 5683 5686 5689
5545 5544 5540 5537 5532 5526 5522 5523 5525 5526 5527 5527 5528 5526 5525 5527 5526 5526 5527 5531 5538 5545 5556 5564 5570 5576 5584 5592 5600 5607 5613 5619 5625 5633 5641 5648 5655 5661 5667 5673 5678 5682 5686 5689
5540 5538 5536 5532 5527 5521 5518 5519 5521 5523 5525 5525 5527 5526 5524 5527 5527 5527 5528 5533 5539 5546 5555 5564 5570 5577 5583 5592 5598 5605 5610 5616 5622 5629 5638 5646 5653 5659 5665 5671 5676 5680 5684 5688
5536 5534 5532 5529 5523 5518 5514 5515 5516 5519 5521 5522 5525 5526 5525 5526 5526 5527 5529 5534 5540 5548 5555 5564 5572 5578 5585 5590 5597 5603 5608 5614 5620 5627 5635 5644 5650 5657 5662 5668 5674 5678 5683 5686
5530 5529 5527 5523 5519 5516 5512 5510 5511 5515 5517 5518 5521 5524 5524 5524 5525 5527 5530 5534 5540 5547 5554 5563 5570 5576 5583 5590 5596 5602 5607 5612 5618 5625 5634 5642 5648 5655 5661 5667 5673 5678 5682 5684